Theta_e
287 286 284 284 284 283 283 282 283 283 282 283 284 284 285 286 286 286 287 287 287 287 286 286 285 285 285 285 284 285 285 286 286 287 286 286 287 287 286 285 286 285 285 284 283 283 283 283 283 283 283 282 282 282 283 283 283 283 282 282 282 282 283 286 287 288 287 287 290 291 292 295 295 295 295 296 297 298 299 299 299 299 300 300 301
285 284 283 283 283 283 282 282 284 282 282 282 283 284 285 285 286 286 286 286 286 286 286 287 286 285 284 284 284 284 284 284 284 285 285 286 287 287 286 285 285 284 284 284 283 283 282 282 282 282 282 282 282 283 282 282 282 282 282 281 283 282 282 285 286 287 286 286 286 287 290 292 294 295 295 296 297 298 298 298 298 298 299 299 300
284 285 284 282 282 282 282 282 282 283 283 282 283 284 284 284 285 285 285 286 286 286 286 285 286 286 285 285 284 284 285 285 285 285 285 285 285 285 285 285 284 284 284 283 283 282 282 282 281 282 282 282 281 281 281 281 281 281 281 280 280 282 282 284 285 288 286 288 288 286 285 287 291 293 295 295 296 297 298 298 298 299 299 301 301
284 284 283 282 282 281 281 281 282 282 283 282 282 283 283 284 284 284 285 285 285 286 288 286 286 286 285 285 285 284 283 285 285 285 285 284 284 285 284 284 284 283 283 283 283 282 282 281 281 281 281 281 281 280 280 280 281 281 281 281 281 279 281 281 284 285 285 285 283 286 286 286 283 288 290 293 296 295 296 296 297 297 298 299 299
284 284 284 282 281 281 281 282 281 281 282 282 282 283 283 284 284 284 284 284 285 286 287 287 286 284 284 283 283 283 283 283 283 282 283 283 283 283 283 283 283 283 283 283 282 282 282 282 281 281 281 281 281 280 280 280 280 281 281 280 280 279 279 280 282 284 284 286 285 284 284 284 284 287 288 289 293 293 295 296 297 298 299 299 299
285 284 284 283 282 282 281 281 280 281 281 282 283 283 283 283 283 283 284 284 284 285 285 285 285 283 282 281 280 280 280 280 280 281 281 281 281 282 283 282 282 282 282 282 282 282 281 281 281 280 280 280 280 280 280 280 280 280 280 280 280 281 280 279 279 283 283 284 286 286 287 284 284 287 286 282 292 293 293 295 295 295 296 296 296
285 285 284 283 282 281 281 281 281 281 282 283 282 282 283 283 283 283 283 283 284 284 284 285 283 282 281 281 281 280 279 281 281 282 281 281 282 281 282 282 282 281 281 281 281 281 281 281 281 280 280 280 280 280 279 279 280 280 280 280 280 281 281 279 279 280 282 283 284 285 286 287 288 286 283 285 282 287 292 292 293 295 296 296 296
284 284 284 284 283 281 281 281 281 281 282 282 281 281 281 282 282 282 283 284 283 284 283 284 282 282 281 280 281 280 280 280 281 281 281 282 281 281 281 281 281 281 280 281 281 281 281 280 280 280 280 280 280 279 279 279 280 280 280 280 280 280 280 279 279 280 278 279 282 282 284 285 287 287 287 285 284 282 285 291 293 293 294 294 294
284 283 283 283 282 282 281 281 281 281 282 281 281 281 281 281 282 282 282 283 283 282 282 282 283 282 281 281 280 281 281 281 281 281 281 280 279 280 279 279 280 280 280 280 280 280 280 280 280 279 279 279 279 279 279 279 279 279 279 279 279 279 280 280 279 279 279 279 279 280 281 282 284 285 286 287 284 283 282 285 287 292 293 294 294
283 284 284 283 283 282 282 281 280 281 281 282 281 281 281 281 281 281 281 281 281 281 282 281 281 282 281 280 279 279 280 280 280 279 279 279 278 278 278 278 279 279 279 279 279 280 279 280 279 279 279 279 279 279 279 279 279 279 279 278 279 278 279 279 278 279 280 280 280 280 279 280 280 281 283 284 285 286 282 283 286 287 287 290 294
282 282 282 283 282 282 281 280 280 280 280 280 280 280 280 280 281 280 280 280 281 280 280 280 280 280 280 280 279 279 279 279 278 278 278 278 277 277 277 278 278 278 278 278 279 279 279 279 279 278 278 279 278 278 278 278 278 278 278 278 278 278 278 278 278 279 280 280 280 280 279 280 280 279 280 282 283 283 283 284 286 287 288 288 292
282 281 281 280 280 280 279 279 280 280 279 279 280 280 280 280 280 279 279 279 279 280 280 280 280 280 280 279 279 279 278 278 277 277 277 276 277 276 277 277 277 277 277 277 277 278 278 278 278 278 277 278 277 278 278 278 278 278 278 278 278 278 278 278 278 278 279 279 279 279 279 279 279 280 282 283 282 282 283 282 284 286 287 289 292
280 280 279 279 279 279 278 279 279 279 279 279 279 279 280 279 279 279 279 279 279 279 279 279 279 279 279 279 278 279 278 278 277 277 277 276 276 276 276 276 276 276 276 276 276 277 277 276 277 277 277 277 277 277 278 278 278 278 278 278 278 277 277 277 277 277 278 277 278 279 279 279 280 282 283 283 284 284 283 281 283 286 284 286 290
280 279 279 279 279 279 279 279 279 279 279 279 279 279 279 279 278 279 278 279 279 279 279 278 278 278 279 278 278 278 277 277 277 276 276 276 276 276 275 275 275 275 275 275 276 276 276 276 277 276 277 277 277 277 277 278 278 277 277 277 277 277 277 277 277 277 277 277 277 276 276 277 277 279 281 283 282 282 281 281 281 283 285 285 289
279 279 279 279 279 279 279 279 279 279 279 279 279 279 279 279 278 278 278 278 278 278 278 278 278 278 278 278 278 277 277 277 276 277 276 276 276 275 275 275 275 275 275 275 276 276 276 276 276 276 276 277 277 277 277 277 277 277 277 277 277 277 277 277 276 277 276 276 277 276 277 277 278 280 281 280 282 281 281 282 281 279 281 285 286
278 278 278 279 279 279 279 279 279 279 279 278 278 279 278 278 278 278 278 278 278 278 278 278 278 278 277 277 277 277 277 277 276 276 276 275 275 274 274 274 274 274 275 275 275 275 275 275 275 275 276 276 276 277 277 277 277 277 276 277 276 277 276 276 276 276 276 276 276 277 277 277 278 278 279 279 280 281 281 282 282 281 278 278 284
278 278 278 278 278 278 279 279 278 278 278 277 278 278 278 278 277 277 277 277 277 277 277 277 277 276 276 276 276 275 275 275 274 274 274 274 274 274 274 274 274 274 274 274 274 275 275 275 275 275 275 276 276 276 276 276 277 276 276 276 275 276 276 276 276 275 276 276 276 276 277 277 278 279 279 279 280 280 281 281 282 281 281 279 280
279 278 278 278 278 278 278 278 278 278 278 277 278 278 278 278 277 277 277 276 276 277 277 277 276 276 275 275 275 275 274 274 274 274 274 273 273 273 273 273 273 273 273 274 274 274 274 274 274 274 274 275 275 276 276 276 276 275 276 275 276 276 275 275 275 275 275 276 276 275 276 275 276 276 277 278 279 279 279 280 281 282 283 281 282
277 277 277 277 277 278 278 278 278 277 277 277 277 277 277 277 277 276 276 276 276 276 276 276 276 275 274 274 274 274 274 274 274 273 273 272 272 272 272 272 272 273 273 273 272 272 273 273 273 273 273 274 274 275 275 275 275 275 275 275 275 275 275 274 275 275 275 275 275 274 275 275 277 278 278 278 279 280 281 282 282 284 284 285 285
278 277 277 278 278 278 278 277 276 276 276 276 276 276 276 276 276 275 276 275 275 275 275 274 274 274 273 274 273 273 273 273 272 272 272 271 271 271 271 271 272 272 272 272 272 272 272 272 272 272 272 273 273 274 274 274 275 274 274 274 274 274 274 274 274 274 275 275 274 274 274 275 276 276 276 276 276 277 278 279 280 281 283 285 286
278 278 278 278 277 277 277 277 276 275 276 275 275 275 275 275 275 276 275 274 274 274 274 273 273 273 273 272 272 272 271 272 271 271 271 271 271 271 271 271 271 271 271 271 271 271 271 272 272 272 272 272 272 273 274 274 273 273 273 273 273 273 273 273 273 273 274 274 273 274 274 275 275 275 275 275 275 275 277 278 281 282 282 284 286
279 278 278 277 277 277 276 276 275 274 275 274 275 275 274 274 274 274 274 273 273 273 272 272 272 272 271 271 271 271 271 270 270 270 270 270 270 270 271 271 270 270 271 271 271 271 271 271 271 271 271 271 272 272 272 273 272 271 271 271 272 272 272 272 272 272 272 273 273 273 273 274 275 274 274 274 276 278 279 280 281 281 282 284 287
279 278 278 277 277 276 275 275 274 274 275 274 274 274 274 273 273 273 273 272 272 272 272 272 271 271 270 270 270 270 270 269 269 269 269 269 269 270 270 270 270 270 270 270 270 270 270 270 269 269 269 270 270 271 271 271 270 270 269 270 270 270 271 271 271 271 271 272 272 272 273 273 274 273 273 273 274 274 275 275 277 280 282 284 287
278 277 276 276 276 275 275 274 274 274 274 274 274 274 273 273 273 272 272 272 271 271 271 271 270 270 270 269 269 269 269 268 268 268 268 269 269 269 269 269 269 269 269 269 269 269 268 268 267 267 268 268 268 269 269 269 269 269 268 268 269 269 269 270 270 270 271 271 271 271 272 272 273 272 272 272 273 274 274 275 276 278 281 283 285
276 276 276 275 275 274 275 275 274 274 274 274 274 273 273 273 272 272 271 271 271 271 270 270 270 269 269 268 268 268 268 268 268 268 268 268 268 268 269 268 268 268 267 267 267 267 266 266 266 266 266 267 267 267 267 267 267 268 268 267 268 268 268 269 269 269 271 270 270 271 271 272 272 271 271 272 272 272 273 275 278 281 282 283 286
276 275 275 274 275 275 275 275 275 274 274 274 274 273 273 272 272 271 271 270 270 270 270 269 269 268 268 267 268 268 267 267 267 267 268 268 268 268 268 267 267 266 265 265 265 265 265 265 265 265 265 265 266 266 266 266 266 267 267 267 267 267 267 268 268 269 269 270 270 270 271 271 271 271 271 271 272 272 273 274 276 278 281 283 285
276 276 275 275 274 274 275 275 275 274 274 274 273 273 272 271 271 270 270 270 270 269 269 268 268 267 267 267 267 267 267 267 267 267 267 267 267 266 266 265 265 264 264 263 264 264 264 264 264 264 265 265 265 265 265 265 266 266 266 266 266 267 267 267 268 268 269 270 270 271 271 271 271 271 271 271 271 271 272 273 275 276 277 277 279
275 275 274 274 275 275 275 275 274 274 274 273 273 272 271 271 270 270 269 269 269 268 268 267 267 266 267 267 267 267 267 267 267 267 266 266 265 265 264 264 263 262 262 262 263 263 263 264 264 264 264 264 264 265 265 265 266 266 266 266 266 267 267 267 268 269 269 270 270 271 271 271 272 272 272 272 272 272 272 273 274 276 277 277 278
275 275 275 275 275 275 275 274 274 274 273 273 272 271 271 270 270 269 269 268 268 267 267 266 266 266 266 266 266 266 267 266 266 265 265 264 263 263 262 262 262 262 262 262 262 262 262 262 263 264 264 264 264 265 265 265 266 266 267 267 268 268 268 268 268 269 270 270 270 271 271 272 272 274 275 275 275 275 273 272 274 276 278 280 280
275 276 275 275 275 275 275 274 274 274 273 272 271 270 270 269 268 268 268 268 267 267 266 266 266 266 266 266 266 266 266 265 264 264 263 263 262 261 261 260 261 261 261 262 262 262 262 262 262 263 264 264 265 265 267 271 272 269 269 270 270 270 270 270 270 270 270 271 271 271 271 274 275 276 276 277 277 278 278 277 275 276 276 278 279
277 277 276 276 275 275 275 274 274 274 273 272 271 270 269 268 268 267 267 267 266 265 265 265 265 265 265 265 265 265 264 263 263 262 261 261 260 260 260 260 260 260 260 261 261 262 262 263 263 264 264 264 265 265 269 272 273 274 271 270 270 270 271 271 271 271 271 272 272 272 272 273 275 275 275 277 278 278 279 279 280 281 281 279 278
278 277 276 275 275 275 275 274 274 274 272 271 270 269 268 267 267 267 266 266 265 265 264 264 265 264 265 264 264 263 262 262 261 260 260 259 259 259 259 259 259 259 260 261 261 262 263 263 264 263 263 264 264 268 271 272 273 274 274 271 270 270 271 271 272 272 272 273 273 273 274 274 274 274 274 274 276 278 279 279 280 281 282 283 284
280 278 277 276 275 275 275 275 275 273 272 271 270 268 268 267 266 266 266 265 264 264 264 264 264 264 264 263 262 262 261 260 260 259 259 258 258 258 258 258 259 260 260 260 261 262 262 263 263 263 263 264 264 268 271 272 273 274 275 274 271 271 271 271 272 273 273 273 273 273 274 274 275 277 276 275 275 275 278 279 279 280 282 283 284
282 280 278 277 276 276 276 275 275 273 272 270 269 268 267 267 266 265 264 264 264 264 263 263 263 263 262 262 261 260 259 259 259 258 258 258 257 258 258 259 259 260 260 261 261 262 262 262 262 262 263 263 263 267 271 272 273 274 275 275 272 272 272 272 272 273 273 274 274 274 274 274 275 275 275 275 275 275 275 275 275 276 277 280 284
282 279 278 277 276 276 275 274 273 271 270 269 268 267 266 265 265 264 264 263 263 263 263 263 262 262 261 260 260 259 258 258 257 257 257 257 257 258 258 259 259 260 260 260 261 261 261 261 261 262 262 262 263 269 271 273 273 274 275 275 272 272 271 271 272 273 274 275 275 275 275 275 275 275 276 276 275 275 275 275 275 276 279 281 282
283 281 278 277 276 275 275 274 272 269 268 268 267 266 265 264 264 264 263 263 263 262 262 262 261 261 260 260 259 258 257 257 257 257 256 257 257 258 258 259 259 260 261 261 261 261 261 261 261 261 261 261 263 269 271 272 274 275 276 272 271 271 271 271 272 273 274 274 275 276 276 276 276 276 277 279 279 277 275 274 274 275 276 279 283
283 282 280 278 277 276 275 271 269 268 267 267 266 265 264 263 263 263 263 263 262 262 262 261 260 260 259 258 258 257 256 256 256 256 256 256 257 257 258 259 259 259 260 260 260 260 261 261 261 261 261 261 262 266 271 273 274 275 274 271 271 271 271 271 272 273 273 273 274 274 275 275 276 276 278 280 280 280 276 275 275 275 278 280 281
280 278 278 277 276 274 270 269 268 267 267 266 265 264 263 262 262 262 262 262 262 261 261 260 259 259 258 258 257 256 256 256 255 255 256 257 257 258 258 259 259 258 259 259 260 260 261 261 261 261 261 261 262 266 271 273 274 275 274 271 271 271 271 271 272 272 273 273 274 276 277 276 276 277 279 280 281 279 277 276 276 276 276 277 279
278 277 276 275 272 270 269 268 267 266 265 265 264 264 263 262 262 262 262 261 261 260 260 259 259 259 258 257 256 256 256 255 255 255 256 255 256 257 258 259 259 259 259 259 260 260 260 261 261 261 265 264 263 266 271 272 274 275 273 272 271 271 270 271 271 271 273 273 273 275 277 277 277 278 281 281 281 280 277 277 277 277 277 277 279
276 276 275 272 270 269 267 267 266 265 265 264 263 263 263 262 262 262 261 260 260 260 260 259 258 257 257 256 256 255 255 255 255 255 255 256 257 257 258 258 258 259 258 259 259 260 260 261 262 263 263 264 265 266 268 273 274 275 275 272 271 270 270 270 271 271 272 273 273 274 275 278 280 281 281 282 282 282 280 279 278 278 277 278 281
274 273 273 270 269 268 267 267 266 265 264 263 263 263 262 262 262 261 260 260 260 259 258 258 257 256 256 255 255 255 254 254 255 255 256 256 257 257 257 257 257 258 258 258 259 260 261 263 265 266 266 266 267 268 269 273 274 275 275 274 271 271 271 271 272 272 272 272 273 274 275 278 280 281 281 282 283 283 283 281 280 279 280 282 284
273 272 270 269 268 267 266 265 264 263 263 263 263 262 261 261 261 260 260 260 259 258 257 256 255 255 255 254 253 254 254 254 254 255 255 255 257 257 257 257 257 257 257 258 259 262 263 264 265 266 266 267 269 271 269 271 273 274 275 276 272 272 273 272 271 271 271 272 273 273 274 276 279 280 280 281 282 283 284 282 282 284 284 285 283
270 269 269 269 267 266 265 264 263 263 262 263 263 262 261 261 260 260 259 259 257 257 256 255 254 254 253 253 253 253 253 254 254 255 255 255 256 256 256 256 256 257 257 258 261 263 263 263 265 266 267 267 268 269 271 270 273 274 275 275 276 274 276 273 271 270 271 271 273 273 274 277 278 279 280 281 282 283 283 282 284 285 285 285 284
269 269 269 268 266 265 264 263 262 262 262 263 262 261 260 260 260 259 258 257 256 255 254 254 253 253 252 252 252 253 253 253 253 254 254 254 254 255 255 256 256 257 258 259 261 262 263 264 264 265 266 267 268 268 270 272 271 273 275 275 276 276 276 273 272 271 271 272 272 273 274 277 278 279 280 281 282 282 281 283 285 285 285 285 284
269 268 269 267 265 263 262 262 262 262 262 262 262 261 260 259 259 259 257 255 254 253 252 252 251 251 251 251 252 253 253 252 253 253 253 254 254 254 254 256 256 257 259 260 261 262 263 264 264 264 265 266 267 268 268 270 272 273 274 275 275 275 275 275 271 271 272 272 274 277 278 279 279 280 281 281 282 282 283 283 284 284 284 284 284
268 268 267 266 264 263 262 261 261 261 261 261 261 261 259 259 258 258 256 255 253 251 251 250 250 251 251 251 252 252 253 253 253 253 253 253 254 254 255 255 257 258 259 260 260 262 264 263 264 264 265 265 267 267 267 268 270 271 272 273 274 274 274 274 273 272 274 275 276 277 277 278 278 278 278 278 278 279 281 282 283 284 284 284 284
267 267 266 264 263 261 261 260 259 260 259 259 259 260 259 258 257 256 255 253 251 251 251 251 250 250 251 251 252 253 253 253 253 253 253 254 254 254 255 257 258 259 259 260 261 263 263 263 263 264 264 265 266 266 267 268 269 269 269 270 270 270 272 272 271 270 272 271 272 273 274 277 277 279 279 280 280 281 280 281 282 283 284 284 284
268 266 265 263 262 262 260 259 259 259 259 258 258 257 257 256 256 255 253 252 251 252 250 250 250 251 251 251 251 254 253 253 252 252 253 253 254 255 256 258 259 260 260 261 263 263 263 263 263 264 264 264 265 266 266 267 268 269 269 269 269 269 268 269 269 270 269 268 269 272 274 276 277 277 277 278 279 280 280 281 282 283 284 284 284
266 265 264 263 262 261 260 260 259 258 258 257 256 256 256 255 254 253 252 252 252 252 251 250 251 251 251 251 251 251 252 252 252 251 252 253 254 255 257 259 262 263 263 264 264 264 264 265 265 264 264 264 265 265 267 272 270 272 269 268 267 268 268 269 271 273 268 266 266 267 268 269 270 270 272 274 276 278 281 284 284 284 284 284 284
266 264 264 263 262 261 260 259 258 258 257 256 255 255 255 255 253 252 252 251 251 250 250 251 251 251 250 251 251 252 252 252 252 252 252 253 257 262 262 261 261 265 268 269 268 265 265 266 265 266 266 265 265 267 272 273 273 273 273 272 272 272 272 271 272 271 268 264 264 264 265 266 267 267 268 269 270 271 273 275 282 284 284 284 284
264 263 263 262 262 261 260 258 257 257 256 255 254 254 254 254 253 252 252 251 251 251 251 251 251 250 252 251 251 252 252 252 252 252 252 252 253 254 260 263 265 266 266 268 268 268 269 269 267 265 267 271 271 272 272 272 272 272 272 272 271 271 271 272 272 266 263 263 262 262 263 264 265 266 266 266 268 268 269 271 273 278 285 285 285
Wind_Speed
8 8 9 11 11 10 10 9 9 8 8 9 9 9 9 9 8 8 5 4 3 3 2 2 2 2 2 2 3 3 3 3 4 4 3 3 4 4 4 4 5 5 5 5 6 6 5 5 6 6 6 7 7 7 8 9 8 8 9 8 10 10 8 7 9 10 13 14 11 14 15 12 16 16 17 15 15 14 13 14 14 14 14 15 15
6 9 10 9 10 9 8 8 9 11 9 9 11 11 10 8 9 7 5 4 4 4 3 3 3 2 2 3 3 3 4 4 4 2 3 3 4 4 4 4 6 6 6 5 6 6 6 6 6 7 7 7 7 8 9 9 9 8 8 10 6 9 9 7 9 9 9 9 15 16 15 12 14 16 15 13 15 14 14 14 14 14 15 14 13
10 13 10 10 10 9 9 9 10 11 11 11 10 10 9 8 7 7 6 6 5 5 4 4 3 3 3 3 2 3 3 4 4 4 4 4 4 5 5 5 6 6 6 6 5 5 6 6 6 6 6 7 8 8 8 9 8 9 9 8 11 7 9 7 8 6 10 10 12 14 15 16 10 8 10 12 12 11 11 12 12 13 15 13 13
15 13 14 13 13 12 11 12 12 10 9 10 9 11 8 8 8 8 7 7 6 5 5 5 4 3 2 2 3 3 5 5 5 5 5 6 6 4 5 5 6 7 7 7 6 5 6 6 6 6 7 7 8 9 8 8 8 8 8 9 8 13 7 8 5 7 8 10 9 4 11 11 18 6 2 8 8 12 14 14 13 14 15 15 14
14 13 13 14 14 17 18 14 10 12 11 12 12 11 9 11 10 10 8 8 7 6 6 5 3 2 0 2 2 4 2 3 4 5 4 5 7 7 7 5 7 8 7 7 7 7 6 6 7 7 8 8 7 8 8 8 8 8 9 9 9 9 13 9 8 6 9 8 10 11 9 7 10 15 17 17 9 11 14 13 11 12 12 11 11
14 16 17 18 18 15 12 13 14 12 13 12 11 11 10 9 9 8 7 6 7 7 6 4 4 3 2 2 2 2 4 2 4 5 5 6 7 6 7 6 7 7 7 8 7 7 7 7 7 8 8 8 8 8 9 9 9 9 8 9 10 10 11 13 11 7 9 10 13 13 12 12 14 14 13 18 8 9 15 13 15 16 16 16 15
9 10 12 14 16 15 15 15 16 15 11 10 9 9 9 8 9 9 8 6 6 6 5 5 4 3 4 4 3 3 5 5 4 5 5 6 6 8 8 7 6 7 8 7 7 7 7 7 7 7 8 8 8 9 9 10 9 9 8 8 9 10 10 13 14 11 9 11 11 15 17 17 18 14 14 14 21 14 9 14 14 12 12 14 15
11 13 15 16 16 19 20 18 15 14 11 10 9 8 10 10 9 8 6 6 5 5 5 4 5 4 4 4 3 4 6 8 6 6 5 6 8 8 7 7 7 6 8 7 7 7 7 7 7 8 8 9 9 9 9 9 9 9 9 10 10 10 11 12 14 12 11 11 8 12 15 17 18 20 21 17 18 21 21 13 16 20 17 17 19
12 12 15 16 17 17 16 15 13 11 11 11 11 10 9 8 8 7 7 5 4 5 4 4 5 5 4 4 4 5 6 7 6 6 7 6 9 8 7 8 8 7 7 8 7 7 7 8 8 8 9 9 9 10 10 10 11 12 11 10 10 10 10 12 13 14 12 13 12 13 13 14 14 16 18 18 17 18 23 22 19 14 17 17 17
10 13 11 12 13 14 14 11 11 12 10 9 9 8 8 8 8 8 7 5 4 5 4 4 5 4 5 5 6 6 4 5 5 6 6 6 8 8 8 7 7 7 7 7 8 7 8 8 9 9 10 10 10 11 12 12 12 12 12 11 11 13 11 12 14 13 13 14 13 12 13 12 13 14 16 17 18 19 22 22 19 20 20 17 14
9 9 8 9 9 10 10 14 13 10 8 9 9 9 9 9 8 9 7 5 5 5 6 5 5 5 5 6 7 6 5 5 6 7 5 6 7 7 7 7 7 7 7 7 7 8 8 8 9 10 10 10 11 11 12 11 11 11 11 13 13 14 12 13 15 16 14 15 16 13 14 14 13 14 15 15 16 17 17 19 18 17 18 21 17
7 7 8 8 8 9 10 13 13 12 10 10 10 9 10 8 8 8 6 6 5 5 6 5 5 5 5 6 6 5 5 5 6 8 7 8 7 8 7 7 7 7 7 7 7 7 8 9 10 11 11 11 11 10 11 11 12 12 12 11 11 12 13 13 14 15 16 15 17 16 16 15 16 17 16 16 16 17 17 19 15 16 17 17 17
7 8 8 9 11 13 14 14 12 13 14 13 12 10 9 8 9 10 8 6 7 6 6 6 5 5 5 5 5 5 5 6 7 8 7 7 6 8 8 8 8 8 7 8 9 9 9 10 10 10 11 10 11 12 12 13 13 13 13 13 13 14 13 14 13 16 16 15 14 16 15 14 16 15 16 16 17 17 17 19 18 16 18 17 17
9 9 10 11 12 13 14 15 15 13 13 13 11 10 9 8 8 10 9 7 6 6 6 5 5 4 4 4 4 4 5 6 6 6 7 6 5 7 7 8 9 9 10 10 9 11 10 11 12 13 12 13 13 13 13 13 13 13 13 14 14 14 13 16 18 18 19 19 19 18 18 17 18 18 18 16 15 13 14 17 16 15 17 20 16
8 9 11 12 13 14 14 14 14 14 14 12 11 11 10 9 9 9 9 7 6 6 4 5 4 4 4 4 4 4 5 5 5 5 5 6 6 7 8 8 8 9 9 10 11 12 12 12 12 13 13 13 13 13 13 13 14 13 14 15 17 15 17 17 16 19 17 20 19 17 17 17 17 16 15 17 16 17 17 15 14 20 17 16 16
9 10 11 12 11 11 11 13 13 13 14 11 12 11 10 9 9 9 9 8 7 6 5 5 4 4 4 4 5 5 5 5 5 5 5 5 7 7 9 9 9 10 10 10 11 11 12 13 13 13 14 13 13 14 14 13 13 14 14 16 19 14 16 20 17 17 20 20 21 19 17 18 17 18 18 18 18 18 17 16 14 16 19 19 15
10 12 11 11 10 11 12 13 13 13 13 14 13 11 12 10 9 9 7 6 6 6 5 5 4 4 4 4 4 4 5 5 5 6 6 7 7 7 8 9 10 9 10 9 11 11 11 12 13 13 13 13 14 14 14 15 15 16 16 17 18 17 18 19 19 16 19 16 16 19 16 17 17 19 17 17 19 18 18 18 16 16 16 20 19
9 10 10 10 12 13 12 12 14 15 14 13 13 11 10 9 10 10 8 8 6 6 6 5 4 4 4 4 4 4 4 5 5 6 6 7 7 7 8 8 9 9 10 10 11 12 12 13 13 13 13 13 14 14 14 15 15 16 16 17 17 17 17 17 17 16 18 16 18 18 17 18 18 18 18 19 19 19 19 19 18 17 15 21 20
9 12 11 11 13 14 15 15 12 11 11 12 11 9 9 8 8 9 9 8 7 5 5 4 4 3 3 3 3 3 3 4 4 5 6 7 8 8 8 9 10 10 10 11 12 12 12 12 12 13 13 14 14 14 15 14 15 15 16 15 16 16 16 18 16 16 14 17 18 19 18 16 15 15 13 12 12 13 15 16 16 14 17 18 21
11 11 12 13 13 14 14 14 14 13 13 11 11 9 11 9 9 8 6 6 6 6 6 5 4 3 3 3 3 3 3 4 4 6 6 7 8 8 9 10 10 10 10 12 12 13 13 14 13 13 14 14 14 14 15 15 15 14 15 14 16 16 19 17 18 15 15 15 18 19 18 17 14 17 15 17 15 18 17 18 18 16 18 18 18
12 12 13 13 13 12 11 10 9 9 8 10 12 13 11 9 9 9 10 8 7 6 5 4 3 3 3 3 3 3 4 4 5 6 7 7 7 8 8 9 10 11 11 12 12 13 13 13 14 14 14 14 15 15 13 14 14 15 14 16 17 18 18 19 15 19 17 17 17 19 19 20 18 20 17 17 17 20 20 18 16 16 16 17 16
12 12 11 10 10 10 9 8 9 10 11 12 11 11 11 11 10 9 8 7 7 6 5 4 3 3 3 3 3 2 3 4 6 6 6 6 7 8 9 10 11 11 11 12 13 12 12 13 14 14 14 15 15 15 15 13 15 15 16 13 14 16 17 18 17 18 17 15 16 18 19 18 18 20 19 18 15 14 15 15 15 14 15 16 16
11 11 10 9 9 10 10 12 13 13 12 12 12 12 12 12 10 8 8 7 7 5 4 4 3 3 3 3 2 2 3 5 6 5 6 7 8 9 9 10 11 11 11 10 12 12 13 13 14 14 15 15 15 15 14 14 15 16 17 16 15 16 17 17 18 19 18 16 18 17 18 17 16 18 19 18 17 18 16 18 19 15 14 16 16
9 6 6 7 7 8 10 13 13 12 14 14 12 11 10 9 8 7 8 7 6 5 4 4 3 3 3 3 3 3 4 5 5 4 6 7 8 9 9 10 11 10 11 11 11 13 13 13 14 14 14 15 15 15 15 15 15 16 17 18 17 17 17 18 18 19 18 16 17 17 17 17 17 19 19 17 17 17 16 15 17 18 17 19 18
8 9 9 8 9 13 14 12 12 10 12 11 13 12 9 8 7 7 7 6 5 5 4 4 3 3 3 3 3 3 4 4 4 5 7 7 8 8 8 9 10 10 11 11 11 11 12 12 12 14 15 15 15 15 16 16 15 15 17 18 18 17 17 18 18 18 18 18 18 17 17 17 17 19 18 17 16 20 17 18 17 14 13 15 14
10 8 9 14 14 11 10 12 10 11 10 13 11 10 9 7 7 6 7 6 6 5 5 4 3 3 3 3 3 3 3 4 5 5 6 7 8 8 9 8 9 11 11 11 12 11 11 13 13 14 15 16 15 15 16 17 17 17 17 17 17 17 17 17 18 18 18 17 17 17 17 17 18 18 17 17 17 19 18 17 18 16 14 13 15
11 12 11 7 9 14 14 13 12 10 11 10 11 10 9 8 8 7 6 6 5 5 5 4 4 3 3 2 3 3 3 4 4 5 6 7 7 8 8 9 8 9 11 12 11 12 12 12 15 15 16 17 18 16 17 17 17 17 18 18 17 17 17 16 17 18 17 17 17 17 17 17 17 18 19 19 18 19 17 19 18 17 15 15 16
6 9 12 15 15 13 14 15 13 12 11 10 9 9 9 9 9 7 7 6 5 5 5 4 4 3 3 3 2 2 3 4 4 5 6 7 7 7 8 8 8 9 10 11 12 13 13 14 15 16 15 15 17 18 17 17 18 17 17 17 17 17 18 18 19 18 18 18 18 18 18 18 19 19 18 19 18 18 16 18 17 15 15 15 15
10 14 13 14 14 16 16 14 13 12 13 12 10 9 8 7 7 7 6 6 6 6 5 4 4 3 3 2 2 2 2 3 4 5 6 7 7 7 8 8 8 9 9 10 12 13 16 15 14 15 16 16 16 15 14 14 16 18 17 18 18 19 18 18 19 19 18 18 18 18 18 19 19 25 29 26 25 22 17 17 17 15 15 13 13
15 16 16 16 16 15 15 15 14 14 14 13 9 9 9 9 8 7 7 6 6 6 5 4 4 3 2 2 2 2 2 4 5 6 6 7 7 7 7 8 8 9 9 10 12 13 13 14 15 16 15 14 14 13 16 26 25 19 20 18 18 18 18 18 16 18 17 18 18 19 17 26 29 29 29 30 30 30 31 24 19 17 16 17 15
15 14 15 15 14 13 13 15 17 15 14 11 10 9 9 8 8 8 7 6 6 5 5 4 3 3 1 1 1 2 4 5 5 5 6 6 7 7 7 8 8 8 9 10 11 13 13 14 15 14 15 14 13 14 26 27 28 30 23 19 18 18 18 19 19 17 19 17 17 17 17 21 24 27 26 31 29 30 29 30 31 31 27 20 16
15 15 13 13 14 16 17 19 18 16 13 12 11 10 10 9 9 8 7 6 6 5 5 4 3 2 1 1 2 3 4 4 5 6 6 6 6 7 7 7 7 9 9 9 11 12 13 13 13 15 16 15 16 21 27 28 29 29 27 21 18 17 17 16 18 16 18 16 19 18 18 16 15 16 18 18 23 28 28 29 29 29 30 33 31
14 13 15 16 17 19 20 18 15 14 12 12 12 12 11 10 10 9 7 7 6 6 5 4 3 2 1 2 3 3 4 4 5 6 6 6 6 6 6 7 8 8 9 11 11 12 12 13 14 16 16 16 17 23 28 30 29 29 30 26 18 17 16 17 17 18 18 18 18 18 19 16 18 24 24 19 21 20 26 31 30 31 32 32 31
11 14 15 15 14 12 13 15 15 13 11 10 11 11 10 9 9 9 8 7 7 6 5 4 3 2 3 3 3 3 4 5 5 6 6 6 6 6 6 6 7 8 10 10 11 13 13 13 14 15 16 15 16 22 29 30 30 30 29 26 19 18 17 17 18 18 17 19 18 20 17 18 17 18 16 20 18 17 18 17 17 17 18 23 27
11 11 11 13 15 13 12 13 14 16 14 12 10 10 10 10 9 9 7 7 6 6 5 4 3 3 3 2 2 3 4 5 6 6 6 6 5 6 6 7 8 9 10 10 11 12 12 12 12 13 13 14 14 27 30 31 30 30 30 27 17 16 15 15 16 17 18 17 20 19 19 18 20 18 16 18 18 16 15 16 16 18 16 15 17
12 13 14 14 15 18 20 16 13 13 12 11 12 11 11 10 8 8 8 7 6 6 5 4 4 3 3 2 1 2 4 5 6 6 5 5 5 6 7 7 8 8 9 9 11 11 12 12 13 13 14 15 15 27 30 30 31 30 31 18 15 15 15 15 15 16 17 16 16 17 18 17 18 18 21 28 26 18 15 16 16 17 17 18 13
11 12 13 15 14 14 14 16 16 14 14 11 11 10 10 10 9 7 7 7 6 5 5 5 4 3 3 2 1 3 5 6 5 6 5 5 6 7 7 7 8 9 11 10 11 11 11 12 13 12 14 15 14 22 29 30 30 31 26 16 16 14 14 15 16 16 16 16 16 18 18 18 19 19 23 27 27 26 16 17 16 16 16 14 13
6 7 9 11 11 12 16 17 16 14 10 11 11 11 10 9 8 8 8 7 6 6 6 5 4 3 3 1 1 3 5 6 5 4 5 5 5 6 7 7 8 10 11 11 11 11 10 10 13 15 13 15 14 21 30 31 30 30 25 16 14 13 13 15 16 16 15 15 17 27 24 20 19 19 24 28 29 24 17 16 16 16 17 16 14
11 14 14 15 17 18 17 15 16 16 12 11 11 11 9 9 8 8 7 7 6 6 5 5 4 4 3 1 2 4 5 6 5 4 3 5 6 7 7 7 7 9 11 11 11 11 11 10 12 14 21 22 16 18 26 29 30 28 23 15 14 13 16 15 16 17 15 15 16 19 27 25 22 22 29 28 29 24 16 16 14 15 17 17 15
9 8 14 17 18 18 16 16 16 15 13 13 10 9 11 10 9 8 7 7 7 6 6 6 5 4 2 2 4 5 5 5 5 4 3 3 5 6 7 8 7 7 10 11 10 10 13 13 13 13 13 13 14 14 18 28 27 28 29 19 13 14 15 16 17 16 16 15 16 16 21 25 27 28 28 28 26 28 19 15 14 15 16 17 12
12 13 14 20 14 16 17 17 12 13 13 11 11 13 10 8 9 8 7 7 7 7 6 5 4 3 3 3 4 5 6 6 4 3 3 4 4 6 7 7 7 8 8 10 11 12 12 12 11 13 12 13 14 15 16 27 28 28 29 26 14 15 15 15 14 15 14 15 14 15 15 21 26 26 26 26 26 25 24 16 15 15 15 14 12
11 15 21 17 17 17 17 14 10 12 11 11 12 13 10 9 8 8 8 8 7 7 6 5 4 3 3 4 5 5 5 4 3 1 3 4 4 4 5 6 7 8 10 12 12 10 11 12 12 12 12 13 14 20 19 23 27 29 29 32 19 15 17 16 17 14 16 16 17 16 16 20 26 26 26 27 28 27 26 16 16 23 25 26 19
16 14 13 20 20 20 15 13 11 10 11 10 13 14 10 8 9 9 9 8 7 7 6 5 4 4 4 5 5 5 4 3 1 1 3 4 4 5 6 6 7 8 9 11 13 12 13 11 12 12 11 11 13 14 23 20 26 29 30 29 30 24 28 19 15 15 16 17 16 17 19 27 27 28 28 27 25 28 24 17 24 26 26 28 24
3 14 19 20 21 19 14 11 11 9 9 9 14 14 10 10 10 9 9 8 7 6 6 5 4 4 5 5 5 4 3 0 1 3 2 4 5 5 5 5 6 7 8 9 9 11 10 11 14 14 12 13 14 14 17 25 25 30 29 30 29 30 28 18 17 15 16 16 17 17 19 29 30 30 29 28 26 26 19 24 24 25 25 23 15
19 16 16 20 25 20 13 12 10 10 8 7 6 12 12 11 10 9 9 9 8 6 5 5 5 5 4 5 4 2 1 2 3 3 4 4 5 4 5 5 5 7 8 8 9 10 9 13 14 14 15 16 14 11 14 21 30 29 30 30 29 29 27 27 18 13 15 16 22 31 33 32 31 31 31 28 26 26 28 27 26 25 23 13 13
14 14 15 17 17 17 13 15 11 9 9 7 6 9 19 11 10 9 9 9 8 7 5 6 5 4 5 5 5 2 2 5 5 3 1 2 3 4 4 6 5 6 7 8 10 8 10 13 13 14 15 14 13 16 16 14 17 24 25 28 30 27 26 27 25 17 25 31 31 32 34 34 30 26 19 15 13 14 20 23 24 22 14 13 13
23 19 17 20 21 17 15 15 14 10 9 8 8 6 8 11 11 10 10 9 8 7 6 5 5 4 3 3 3 2 2 4 4 3 2 2 2 2 4 5 6 7 8 9 8 10 11 12 13 13 14 15 16 16 15 18 15 18 18 19 19 17 23 23 16 14 18 17 21 22 19 23 21 25 25 24 23 22 18 16 13 12 12 14 13
15 19 22 18 15 18 16 14 13 12 10 9 8 8 8 9 10 10 10 9 8 7 7 7 6 4 2 1 3 4 5 4 4 4 4 5 2 2 4 5 5 6 7 7 8 9 11 11 11 12 14 13 11 15 16 13 16 17 18 17 16 15 15 14 14 15 15 17 17 18 19 12 11 11 12 10 10 11 13 13 13 11 11 11 13
19 17 22 19 16 14 16 14 12 11 10 10 9 9 9 10 9 9 9 10 8 8 6 6 5 3 2 1 3 3 4 5 3 2 1 3 6 5 5 7 8 7 7 8 8 10 10 10 10 11 13 12 12 14 12 23 23 27 24 20 16 15 14 13 18 26 18 15 13 12 12 12 11 11 10 10 10 10 10 11 12 9 9 10 10
10 13 12 15 13 17 16 13 11 10 11 10 10 9 9 8 9 8 9 9 8 7 7 6 4 3 3 3 4 4 6 6 5 5 4 3 6 10 7 6 6 13 16 17 15 10 12 11 9 10 11 14 16 17 29 32 32 31 32 31 28 28 26 21 23 28 19 11 11 11 10 11 11 11 11 10 11 11 12 13 10 10 10 9 10
20 17 15 17 12 11 12 13 12 11 10 10 10 10 10 9 9 9 8 8 8 7 6 5 5 4 4 4 3 4 5 5 4 3 4 7 8 2 5 6 11 14 17 18 17 19 20 19 15 11 12 22 25 27 29 30 31 31 31 31 29 29 28 27 25 19 12 10 13 12 12 11 11 11 10 11 11 11 12 12 13 12 8 10 9
Wind_Direction
202 200 190 194 195 194 188 180 177 176 176 176 167 177 176 172 161 179 174 147 162 177 196 207 219 237 239 227 247 262 263 261 260 265 253 256 263 257 254 272 274 272 281 288 294 300 305 314 321 325 326 323 318 314 315 312 313 313 310 307 306 307 301 295 294 301 305 300 285 282 286 273 272 270 267 266 265 263 263 265 262 262 259 261 262
167 197 197 195 198 193 183 182 174 175 195 178 183 182 178 170 171 167 145 153 171 181 186 189 198 206 236 257 267 275 285 278 280 261 257 262 265 256 258 270 275 273 281 286 293 301 311 318 320 318 323 315 306 302 304 305 306 309 314 310 301 304 300 304 301 308 298 303 315 314 300 292 266 255 254 259 255 255 257 257 260 260 259 261 262
202 208 196 196 194 192 187 190 193 193 180 187 189 177 177 170 174 163 153 166 180 177 179 201 203 214 198 247 251 290 254 269 275 273 277 273 259 246 248 265 268 274 276 281 286 291 295 300 302 306 306 308 308 306 304 304 305 307 309 307 309 295 286 291 294 293 294 302 294 296 300 322 301 243 245 240 249 256 260 262 262 264 268 268 268
212 198 198 191 192 192 190 196 187 186 183 185 186 186 175 173 172 170 172 173 175 184 189 199 193 209 227 257 285 265 287 301 297 297 294 290 273 245 263 276 281 285 286 286 284 285 296 299 304 305 306 306 302 301 300 295 300 303 304 300 301 303 297 292 280 290 287 307 304 262 301 311 303 302 31 284 254 262 267 267 268 269 271 270 272
213 200 200 194 193 199 198 189 177 189 191 189 187 184 176 179 176 175 172 175 175 180 188 177 171 190 236 324 308 300 283 294 308 290 277 279 287 291 289 288 282 281 283 281 287 293 294 293 295 299 299 299 298 294 295 294 295 293 293 292 291 292 299 292 286 271 271 258 269 298 300 266 250 289 323 291 269 266 259 256 263 272 280 288 283
208 202 199 198 200 200 194 188 190 194 196 196 187 184 172 171 168 167 165 167 175 181 178 168 188 189 195 238 286 299 294 282 257 272 288 283 277 284 284 274 272 273 275 282 282 289 292 291 292 296 297 296 295 293 291 294 290 289 289 289 286 279 281 294 288 270 266 259 250 251 251 276 301 302 315 297 309 248 274 262 265 267 272 275 273
214 209 200 198 202 196 197 196 196 195 198 182 184 175 175 165 168 167 165 171 168 172 169 173 176 184 193 208 220 240 262 265 233 239 259 272 277 276 279 276 265 272 276 274 281 277 278 279 279 280 281 283 285 284 282 282 285 284 287 284 282 284 280 280 283 286 283 260 255 254 257 261 266 284 282 295 294 291 237 270 266 260 266 271 275
203 205 204 203 196 196 198 198 195 197 181 182 175 172 175 171 166 168 168 168 165 164 167 167 180 185 190 204 218 224 234 260 274 277 269 274 281 284 289 286 288 281 282 280 277 279 280 279 277 279 281 282 284 280 279 280 282 279 277 278 281 275 271 272 282 281 278 279 260 263 266 264 261 260 260 266 278 288 290 267 265 274 270 264 265
199 204 205 200 198 201 199 196 196 183 185 182 181 177 168 161 159 157 166 163 163 164 163 172 187 185 191 201 224 233 238 255 269 273 283 283 282 283 282 289 289 283 278 284 282 283 284 285 284 283 284 285 286 283 280 280 278 279 278 276 272 273 268 271 275 275 273 272 281 269 265 264 265 262 263 259 261 277 277 280 281 275 275 267 264
210 214 207 204 202 200 197 187 181 192 183 179 169 154 159 154 158 164 172 166 162 157 166 174 184 189 195 203 223 238 235 254 257 267 267 271 273 279 287 289 289 290 288 283 286 286 286 287 286 284 284 285 286 283 283 282 279 275 271 270 270 272 271 269 269 272 272 274 268 272 271 268 266 266 259 258 261 256 268 279 278 283 279 272 264
211 211 207 206 197 192 178 188 186 181 180 169 167 167 157 158 159 170 174 158 158 165 165 180 179 186 198 207 219 243 252 259 275 273 272 273 278 285 286 287 288 291 296 291 285 289 288 286 287 287 286 284 283 283 281 281 280 276 273 269 268 266 269 269 269 269 270 272 272 269 267 266 264 263 264 261 259 264 265 268 279 277 280 285 274
203 195 201 187 175 180 179 191 183 180 170 179 173 165 161 158 159 162 167 164 169 171 170 181 178 188 201 207 223 234 245 254 266 277 281 285 288 293 294 294 295 295 292 293 290 294 292 290 287 287 284 281 277 276 278 278 278 276 272 269 269 267 265 268 267 269 268 271 270 268 265 266 264 262 262 263 264 266 268 274 276 281 277 270 277
193 199 192 191 190 185 190 192 181 184 189 179 177 167 163 159 163 160 173 176 178 175 177 179 178 190 195 207 220 231 240 246 259 267 273 277 287 290 298 301 305 305 304 304 300 302 299 294 291 286 286 281 279 278 277 276 276 273 271 270 267 266 266 264 266 267 271 267 270 269 268 265 266 265 262 258 258 259 260 268 269 275 277 277 272
202 199 199 197 196 195 193 190 190 188 187 181 173 172 167 162 165 165 173 178 176 176 178 176 185 191 197 204 219 229 243 250 253 261 268 271 279 285 289 294 296 291 296 294 296 298 292 287 286 284 278 278 278 277 276 275 273 272 273 271 268 269 266 266 270 270 269 266 266 268 266 265 262 263 264 267 270 275 271 268 277 273 269 274 273
205 204 204 203 201 196 193 191 190 191 184 180 172 172 163 165 165 167 164 180 176 178 171 178 185 195 199 208 220 230 245 250 254 259 269 283 286 286 286 288 287 289 288 290 292 290 287 287 285 283 281 278 277 275 274 273 271 271 271 273 277 274 273 272 269 271 267 266 263 260 265 262 262 261 265 267 268 263 262 266 271 277 277 271 273
205 212 213 212 202 197 195 193 193 189 183 173 173 167 168 167 167 168 167 171 173 174 180 180 193 188 200 214 221 235 252 259 267 268 278 283 284 284 287 286 286 290 289 289 289 289 290 288 285 280 279 276 275 274 274 272 273 274 275 277 276 276 273 272 270 269 267 265 265 262 263 263 261 260 259 260 261 262 263 265 264 268 276 281 275
208 212 213 205 198 201 198 195 191 186 180 180 171 169 166 160 162 163 167 162 170 175 178 188 188 191 210 213 223 236 241 255 268 286 291 286 282 285 285 286 287 286 289 291 290 290 288 287 288 285 282 281 278 277 276 277 277 278 275 276 274 277 273 272 273 267 268 266 263 262 262 265 268 269 267 265 264 262 262 263 262 265 271 278 277
214 220 216 205 201 200 199 200 195 189 178 166 167 163 159 158 161 161 161 168 176 172 181 185 192 205 211 217 228 233 254 268 281 292 292 288 288 288 289 291 290 291 291 291 293 292 290 287 286 288 286 285 284 282 280 281 279 278 275 273 275 276 274 273 271 267 268 266 266 264 262 264 262 259 256 254 253 254 257 256 259 259 261 264 269
215 217 213 206 203 203 199 197 189 182 168 160 147 152 150 155 160 160 165 170 168 168 177 183 193 202 207 227 237 251 262 275 286 286 283 284 288 290 291 290 292 292 293 294 294 292 291 291 290 290 290 288 288 286 286 284 279 279 277 277 276 276 272 274 271 270 268 267 264 262 262 260 263 267 272 277 275 273 264 260 255 251 254 255 263
215 215 214 211 207 204 198 190 184 175 160 155 148 146 156 159 158 157 154 159 159 170 175 185 196 199 217 233 245 256 275 289 295 288 284 288 292 295 294 293 291 295 293 293 291 291 293 294 295 293 293 294 290 289 288 284 283 278 279 278 279 279 275 270 273 268 270 266 266 265 263 262 264 269 273 275 280 274 272 271 271 269 265 263 264
216 213 214 210 205 200 195 185 169 146 153 157 159 161 157 157 161 163 163 166 165 171 173 183 187 203 228 245 261 274 291 295 286 281 286 290 293 292 291 292 297 292 294 292 292 294 296 296 297 297 297 297 296 294 293 288 285 281 281 281 283 280 277 273 271 272 268 266 267 266 265 265 268 268 266 270 265 263 262 259 254 253 259 264 263
216 218 215 207 201 191 175 160 149 157 166 168 165 154 159 167 166 160 157 157 160 173 169 173 183 192 218 241 244 259 272 275 274 280 288 292 292 294 297 298 293 292 292 294 296 298 299 300 300 299 298 296 294 291 292 291 290 288 285 282 282 282 277 277 275 271 271 269 268 267 267 267 266 267 266 266 270 277 275 268 257 253 260 264 264
218 216 211 204 194 187 179 174 172 175 167 162 163 167 167 166 159 159 152 160 160 164 160 165 176 193 227 233 244 264 271 268 275 288 291 297 300 300 300 297 295 297 298 299 303 305 305 303 301 300 299 298 297 295 294 291 289 288 287 284 281 281 279 276 276 273 273 272 270 268 268 270 270 268 267 269 271 275 276 275 278 277 271 267 267
225 210 201 194 177 171 168 177 178 179 176 175 166 165 167 164 157 148 155 156 155 154 156 161 177 204 222 238 255 269 266 269 286 291 296 301 302 300 298 297 300 303 307 308 308 306 304 302 301 300 298 297 296 294 294 290 289 287 284 282 283 281 278 276 276 276 275 273 270 270 268 268 269 269 270 271 272 269 270 266 264 266 266 267 263
218 204 194 179 179 183 192 187 182 178 171 170 173 171 165 157 150 150 149 150 144 149 153 169 185 203 225 235 252 258 260 276 288 298 301 301 300 301 302 304 309 310 312 312 307 305 302 303 300 300 298 296 295 293 293 291 288 285 282 284 283 282 279 276 275 275 274 272 272 271 273 272 270 270 272 272 272 274 275 280 275 267 268 275 278
212 192 181 197 198 195 189 190 185 185 178 172 168 165 157 148 149 143 144 145 150 147 161 173 186 205 221 230 247 252 267 287 299 303 303 304 304 305 309 311 314 312 313 307 304 303 303 301 299 298 297 294 294 292 291 291 288 286 285 283 283 281 279 277 277 275 273 271 270 269 269 269 268 267 270 272 273 275 277 270 271 273 272 272 274
204 196 203 192 192 200 197 191 191 184 181 175 167 160 152 146 146 147 143 144 149 152 167 169 191 206 218 227 241 258 285 297 306 308 310 310 310 311 312 312 315 313 309 304 303 303 301 300 299 298 299 299 297 293 295 291 287 286 286 284 281 281 278 277 274 272 270 269 267 267 266 264 264 265 267 268 272 274 271 271 269 273 280 283 284
185 199 199 202 203 197 195 193 186 187 175 168 162 154 151 151 150 148 144 143 151 155 165 177 186 203 213 230 244 276 295 309 313 318 315 313 311 310 312 312 314 309 303 301 304 305 300 301 299 299 295 293 294 295 293 292 291 286 285 281 278 276 273 269 266 263 263 261 258 258 257 257 260 261 261 261 264 265 266 268 269 269 269 267 267
198 212 207 202 200 200 196 190 189 176 175 165 152 148 140 134 135 141 141 149 153 154 169 176 188 196 213 220 263 286 314 322 329 324 316 313 312 311 311 310 306 301 298 299 299 297 300 297 290 289 292 296 297 293 291 288 293 287 283 280 277 272 266 265 265 261 255 254 256 253 252 255 250 261 260 263 261 261 263 267 268 270 268 255 252
210 212 209 206 206 199 194 189 183 182 173 164 157 154 150 146 145 146 146 151 148 162 166 179 184 196 207 237 275 311 338 348 334 322 314 313 311 309 307 306 301 299 300 298 292 293 289 290 292 301 302 299 297 294 290 290 291 292 292 289 286 281 279 276 270 270 261 256 252 254 247 251 257 264 265 264 264 264 262 261 263 264 267 277 281
217 215 211 208 203 197 189 187 191 185 178 165 156 144 141 141 145 147 151 154 150 160 173 170 187 184 206 261 329 0 1 344 328 314 309 308 309 306 302 298 299 302 298 292 294 294 293 299 302 303 305 302 297 295 293 295 296 296 296 294 292 289 283 280 272 270 271 270 262 255 251 251 254 260 262 263 262 263 264 265 265 261 258 257 265
218 214 207 202 196 194 191 194 191 183 168 161 154 151 148 150 150 153 152 148 151 164 165 175 176 174 207 26 16 11 354 331 317 306 305 304 299 298 297 301 304 303 296 293 293 296 304 306 305 305 302 301 298 294 297 299 299 299 297 294 291 288 287 282 281 273 274 267 270 264 265 262 251 256 251 255 254 262 266 266 268 267 264 259 251
217 206 206 200 198 196 195 193 181 177 170 165 149 147 155 153 152 152 139 151 158 163 165 167 161 166 118 56 31 7 344 316 306 301 297 294 292 292 301 309 304 296 296 300 302 304 305 306 304 304 301 300 297 295 300 301 301 300 299 298 294 289 285 283 283 280 276 269 271 266 267 259 258 254 260 257 261 260 265 262 268 272 269 258 254
215 208 204 201 197 195 192 186 177 166 150 137 152 143 143 141 136 139 149 155 159 161 158 159 150 131 84 54 29 14 321 303 297 294 292 293 289 300 308 300 296 301 302 299 302 304 304 303 301 298 297 294 291 293 298 302 304 304 303 301 296 293 289 288 287 284 282 276 268 267 259 264 258 258 253 254 256 252 259 258 266 263 259 260 256
216 204 199 194 189 180 167 160 159 152 146 144 140 138 132 134 144 147 153 151 158 151 152 151 135 107 85 55 31 341 304 294 292 288 286 284 299 310 310 307 310 309 308 306 307 305 301 295 292 292 291 289 287 295 302 304 307 307 305 305 300 300 297 292 288 284 283 279 271 266 259 262 264 259 257 248 254 248 249 253 258 263 269 257 243
214 202 197 180 176 178 177 167 139 136 145 147 142 143 136 140 141 145 148 152 149 149 146 142 124 107 94 64 40 313 292 285 287 285 281 306 320 319 314 310 308 303 298 299 300 297 295 294 291 290 289 287 286 296 302 304 308 311 310 310 306 298 291 287 285 286 285 285 287 283 277 269 263 259 254 255 257 252 249 250 254 258 258 261 259
214 194 193 183 176 167 152 129 136 141 143 148 141 135 131 133 141 146 145 148 148 148 145 135 120 116 102 97 332 285 280 279 280 282 302 321 327 319 313 312 308 306 305 303 299 296 292 291 290 288 287 288 286 293 300 308 312 312 313 307 299 290 289 291 290 292 293 291 285 281 279 276 272 266 259 258 259 257 253 251 250 253 259 258 257
165 138 137 142 141 122 121 137 139 143 138 133 138 137 134 134 140 146 148 147 151 147 142 131 126 126 118 138 241 267 269 273 272 285 312 319 313 308 304 313 309 308 304 300 299 293 285 283 289 290 285 286 288 295 302 308 314 314 314 309 304 302 295 297 296 293 290 284 280 280 279 277 273 269 266 260 261 260 257 252 250 253 257 260 258
160 156 149 147 140 140 139 131 137 138 147 138 136 136 132 134 141 148 149 148 153 146 140 135 131 130 127 174 237 249 257 264 278 285 304 307 312 310 304 306 300 298 296 297 296 292 290 285 285 285 290 294 287 293 300 309 316 317 319 314 309 301 300 298 296 294 284 283 281 280 278 275 272 268 269 266 259 257 252 248 247 248 251 251 249
140 144 146 131 122 125 138 144 149 148 139 142 138 137 139 137 145 147 147 152 150 142 135 126 126 128 144 208 238 240 244 252 269 280 284 291 301 304 308 309 301 296 296 297 286 290 296 299 298 292 293 287 291 293 304 317 323 321 320 318 310 303 298 294 293 283 282 274 271 271 277 273 272 272 273 276 272 259 249 242 240 242 244 247 244
140 130 129 129 144 147 151 153 142 137 141 138 142 140 139 141 144 143 148 147 138 131 126 126 125 140 174 217 242 234 240 251 248 267 295 304 307 311 309 304 302 299 295 295 292 299 300 303 304 306 303 301 296 304 315 327 325 324 322 322 310 306 299 295 294 290 284 282 278 279 279 277 276 277 277 278 277 270 260 249 239 240 242 252 252
105 138 134 130 128 115 105 106 122 135 139 144 147 141 138 143 140 141 144 135 129 129 124 127 143 156 192 220 226 242 246 239 250 279 319 315 308 305 298 298 298 297 296 298 302 305 310 302 302 306 302 303 309 323 326 322 323 323 324 322 318 306 309 310 308 302 300 297 291 288 284 280 280 279 280 281 281 282 272 257 248 247 249 249 248
138 137 141 141 130 142 139 132 138 139 145 153 143 133 138 138 135 141 134 131 127 125 126 138 150 174 201 213 231 229 239 231 235 8 334 312 314 315 309 302 296 296 291 300 311 304 303 296 313 319 315 315 319 320 323 325 329 329 326 324 321 318 314 314 309 303 300 296 293 288 284 283 280 278 277 276 276 277 279 267 256 251 248 246 245
29 140 151 149 125 124 125 132 140 143 147 155 150 136 140 134 134 135 130 124 123 122 131 146 166 187 194 220 223 226 230 222 67 32 349 323 320 310 304 300 299 298 294 295 293 303 300 312 325 323 325 327 323 319 330 336 333 327 326 326 323 320 319 319 313 304 302 295 292 287 281 281 279 276 275 275 275 274 271 272 268 258 254 250 242
160 157 153 154 144 145 133 135 144 139 144 141 158 135 133 131 138 138 139 131 127 128 140 157 169 182 204 213 220 214 196 87 57 43 1 330 319 318 310 306 300 298 298 297 300 300 307 326 323 326 328 325 323 328 332 328 326 328 332 330 326 325 325 323 315 304 302 298 292 290 285 282 279 277 277 277 277 274 269 268 266 264 254 241 241
137 137 154 141 103 111 131 136 137 142 139 148 143 148 131 139 136 137 134 127 129 136 156 170 182 194 209 205 190 167 87 57 50 37 347 289 285 298 293 297 292 297 301 296 299 300 324 328 325 324 327 324 325 332 327 323 328 333 333 331 330 329 328 323 318 312 310 304 298 291 285 281 279 277 277 272 264 264 265 264 262 259 247 237 234
170 155 136 143 144 139 148 142 142 150 144 142 135 127 119 130 136 137 128 125 132 147 150 158 182 201 218 201 150 117 92 62 42 17 328 284 285 269 282 279 296 308 301 298 292 323 327 325 327 322 323 325 329 334 335 333 329 337 337 333 333 330 330 325 317 322 323 317 308 305 291 278 268 269 269 270 272 272 270 267 259 251 245 235 228
124 139 137 133 148 149 148 148 144 151 147 139 135 129 128 128 132 129 123 127 141 155 151 159 173 187 191 112 85 67 75 73 51 10 332 326 297 286 287 295 302 302 294 300 313 326 329 326 323 324 325 317 322 339 335 330 341 340 339 337 334 333 332 326 331 334 339 322 316 315 323 316 282 272 271 264 261 257 255 255 250 242 232 220 224
156 155 155 162 159 148 150 144 138 140 140 137 133 130 134 134 129 123 129 141 149 149 144 151 168 170 134 97 76 60 57 60 52 51 279 266 289 297 296 295 310 305 309 321 323 330 326 323 320 327 325 318 334 339 335 342 341 342 343 343 340 340 334 334 344 348 339 325 321 325 339 339 349 343 342 336 333 322 306 271 240 231 219 217 218
136 137 142 128 134 137 140 135 132 137 137 135 134 133 136 132 122 128 143 147 145 140 145 147 154 145 128 99 70 53 51 44 21 357 341 306 260 271 292 300 302 330 336 338 340 336 335 332 325 335 332 340 340 338 339 343 345 346 348 348 349 348 342 343 352 353 343 330 333 335 337 338 338 343 340 337 331 331 330 328 307 234 220 221 214
147 135 144 150 152 134 122 126 133 138 136 135 135 140 141 134 133 143 155 156 149 140 137 141 142 141 132 103 95 73 58 48 24 2 347 332 331 293 249 300 337 343 341 341 345 344 343 343 344 339 332 345 344 344 346 347 348 350 351 352 354 353 348 349 354 354 338 344 347 341 340 338 339 336 338 335 333 332 333 328 327 319 262 225 222